Home > Weather > Lihue > Past weeks

Flag for USA Past Weather in Lihue, Hawaii, USA — Yesterday and Last 2 Weeks

Now
76 °F

Overcast.


Feels Like: 77 °F
Forecast: 71 / 84 °F
Wind: 13 mph from East

Location: Lihue Airport

Current Time: May 28, 2016 at 12:00:07 AM

Latest Report: May 27, 2016 at 10:53 PM


Visibility: 10 mi

Pressure: 30.09 "Hg

Humidity: 82%

Dew Point: 70 °F

Location of LihueLocation

Past Weather in Lihue — Graph

°F

Lihue Temperature Yesterday

Maximum temperature yesterday: 81 °F (at 10:53 AM)
Minimum temperature yesterday: 72 °F (at 1:31 AM)
Average temperature yesterday: 76 °F

High & Low Weather Summary for the Past Weeks

 TemperatureHumidityPressure
High83 °F (May 14, 11:53 AM)100% (May 27, 2:03 AM)30.16 "Hg (May 27, 2:03 AM)
Low67 °F (May 13, 4:53 AM)56% (May 13, 11:53 AM)29.95 "Hg (May 13, 3:53 AM)
Average77 °F76%30.07 "Hg
* Reported May 12 9:53 PM — May 27 9:53 PM, Lihue, Weather by CustomWeather, © 2016

Note: Actual official high and low records may vary slightly from our data, if they occured in-between our weather recording intervals... More about our weather records

Advertising

Lihue Weather History for the Previous 24 Hours

Scroll right to see more
 ConditionsComfort  
Time TempWeatherWind HumidityBarometerVisibility
9:53 PM
Fri, May 27
76 °FMostly cloudy.13 mph82%30.09 "Hg10 mi
9:25 PM75 °FPassing clouds.13 mph83%30.09 "Hg10 mi
8:53 PM76 °FPassing clouds.12 mph82%30.08 "Hg10 mi
8:28 PM75 °FPassing clouds.14 mph83%30.09 "Hg10 mi
7:53 PM76 °FPassing clouds.9 mph82%30.07 "Hg10 mi
7:45 PM75 °FPassing clouds.10 mph83%30.08 "Hg10 mi
7:20 PM75 °FMostly cloudy.10 mph89%30.08 "Hg10 mi
6:53 PM77 °FPartly sunny.10 mph79%30.06 "Hg10 mi
6:24 PM77 °FPartly sunny.7 mph79%30.06 "Hg10 mi
5:53 PM78 °FPassing clouds.7 mph76%30.05 "Hg10 mi
4:53 PM78 °FScattered clouds.7 mph74%30.04 "Hg10 mi
4:26 PM79 °FMostly cloudy.7 mph74%30.05 "Hg10 mi
4:08 PM79 °FPartly sunny.7 mph74%30.05 "Hg10 mi
3:53 PM79 °FPassing clouds.7 mph74%30.05 "Hg10 mi
2:53 PM78 °FPartly sunny.7 mph76%30.05 "Hg10 mi
1:53 PM79 °FScattered clouds.7 mph74%30.06 "Hg10 mi
12:53 PM80 °FPassing clouds.10 mph69%30.08 "Hg10 mi
11:53 AM81 °FSunny.12 mph69%30.09 "Hg10 mi
10:53 AM81 °FPassing clouds.12 mph72%30.09 "Hg10 mi
9:53 AM80 °FScattered clouds.10 mph71%30.10 "Hg10 mi
9:15 AM79 °FScattered clouds.8 mph74%30.11 "Hg10 mi
8:53 AM78 °FBroken clouds.8 mph76%30.10 "Hg10 mi
8:31 AM79 °FBroken clouds.8 mph74%30.10 "Hg10 mi
7:53 AM76 °FPassing clouds.3 mph85%30.09 "Hg10 mi
6:53 AM74 °FPassing clouds.5 mph91%30.08 "Hg10 mi
5:53 AM77 °FPartly cloudy.16 mph79%30.07 "Hg10 mi
4:53 AM74 °FLight rain. Overcast.9 mph88%30.05 "Hg10 mi
4:35 AM73 °FLight rain. Mostly cloudy.No wind89%30.07 "Hg10 mi
3:53 AM75 °FMild.8 mph88%30.05 "Hg10 mi
2:53 AM75 °FMostly cloudy.10 mph88%30.06 "Hg10 mi
2:43 AM73 °FOvercast.10 mph94%30.07 "Hg10 mi
2:36 AM73 °FMostly cloudy.12 mph94%30.07 "Hg10 mi
2:03 AM72 °FLight rain. Mostly cloudy.5 mph100%30.07 "Hg10 mi
1:53 AM73 °FLight rain. Mostly cloudy.8 mph94%30.07 "Hg8 mi
1:31 AM72 °FHeavy rain. Fog.14 mph88%30.09 "Hg2 mi
1:02 AM75 °FOvercast.16 mph89%30.09 "Hg10 mi
12:41 AM75 °FPartly cloudy.15 mph89%30.09 "Hg10 mi
Weather by CustomWeather, © 2016

See weather overviewHow to use our weather pages